User: anonymous   Login
Location: Codford Saint Peter
(51.1597°N, 2.0531°W)
Time: 14:35:50
(UTC+00:00)
Language:

ELECTRON R/B - Orbit

View from above orbital plane
View from above orbital plane
View from above satellite
View from above satellite

Ground track
Ground track

The orbit data is extracted from the following two-line orbital elements,

1 44227U 19026C   21331.85407843  .00004158  00000-0  17256-3 0  9998
2 44227  40.0215 133.1707 0009433 344.9647  15.0873 15.24549830142913
Epoch (UTC): 27 November 2021 20:29:52
Eccentricity: 0.0009433
inclination: 40.0215°
perigee height: 485 km
apogee height: 498 km
right ascension of ascending node: 133.1707°
argument of perigee: 344.9647°
revolutions per day: 15.24549830
mean anomaly at epoch: 15.0873°
orbit number at epoch: 14291

The dashed part of the orbit path shows where the satellite is in the earth's shadow,  

DLR